Regional Weather Roundup
Issued by NWS Sterling, VA

Home | Current Version | Previous Version | Graphics & Text | Print | Product List | Glossary On
Versions: 1 2 3 4 5 6 7 8 9 10 11 12 13 14 15 16 17 18 19 20 21 22 23 24 25 26 27 28 29 30 31 32 33 34 35 36 37 38 39 40 41 42 43 44 45 46 47 48 49 50
312
ASUS41 KLWX 201510
RWRLWX

REGIONAL WEATHER ROUNDUP
NATIONAL WEATHER SERVICE BALTIMORE MD/WASHINGTON DC
1000 AM EST FRI JAN 20 2017

Note: "FAIR" indicates few or no clouds below 12,000 feet
with no significant weather and/or obstructions to visibility.
 TC=TEMPERATURE CELSIUS

 * =Non NWS site. Station does not report precipitation (e.g. rain,
    snow, etc.), thunder, or fog.

DCZ001-MDZ009-015-VAZ040>042-051-053>054-201600-
WASHINGTON METRO

CITY           SKY/WX    TMP DP  RH WIND       PRES   REMARKS
WASHINGTON NAT CLOUDY    44  39  82 CALM      29.98S
DULLES         CLOUDY    42  37  82 SE7       29.95F
ANDREWS AFB    CLOUDY    41  38  88 E3        29.96S
FT BELVOIR     CLOUDY    41  37  86 CALM      29.97S
QUANTICO       CLOUDY    43  39  86 CALM      29.98F
COLLEGE PARK*  CLOUDY    39  36  87 CALM      29.98S
LEESBURG*      CLOUDY    41  41 100 CALM      29.96S
MANASSAS*      PTSUNNY  N/A N/A N/A CALM      29.96
GAITHERSBURG*  CLOUDY    39  36  87 SE8       29.99F

$$

MDZ006>007-011-014-201600-
BALTIMORE METRO

CITY           SKY/WX    TMP DP  RH WIND       PRES   REMARKS
BWI AIRPORT    LGT RAIN  39  39 100 E6        29.98S FOG
MD SCIENCE CTR   N/A     41  36  82 MISG      29.98S
MARTIN STATE   RAIN      39  39 100 CALM      30.01R
ANNAPOLIS      LGT RAIN  41  38  89 SE3       29.99R FOG
FORT MEADE*    CLOUDY    37  36  93 CALM      30.00F

$$

MDZ012-015-019>023-201600-
MARYLAND EASTERN SHORE

CITY           SKY/WX    TMP DP  RH WIND       PRES   REMARKS
OCEAN CITY     CLOUDY    43  42  97 CALM      30.00F FOG
SALISBURY      CLOUDY    41  41 100 S3        30.00R FOG
BAY BRIDGE AP* LGT RAIN  41  39  93 SE6       29.99S FOG
CAMBRIDGE*     CLOUDY    37  37 100 CALM      30.00R
EASTON*        LGT RAIN  41  37  87 CALM      30.04R

$$

MDZ017>025-201600-
SOUTHERN MARYLAND

CITY           SKY/WX    TMP DP  RH WIND       PRES   REMARKS
PATUXENT RIVER CLOUDY    42  41  96 SE8       29.98S
ST INIGOES     PTSUNNY   45  40  82 SE5       29.98R
LEONARDTOWN*   CLOUDY    43  37  81 CALM      29.99F

$$

MDZ003>005-201600-
NORTH CENTRAL MARYLAND

CITY           SKY/WX    TMP DP  RH WIND       PRES   REMARKS
FREDERICK*     LGT RAIN  37  37 100 CALM      29.99S
HAGERSTOWN APT LGT RAIN  41  38  89 E3        29.92F FOG
WESTMINSTER*   RAIN      37  37 100 SE3       29.95S

$$

MDZ501>502-201600-
WESTERN MARYLAND

CITY           SKY/WX    TMP DP  RH WIND       PRES   REMARKS
OAKLAND*         N/A     39  39 100 S9        29.78F
CUMBERLAND*      N/A     36  36 100 N3        29.89F

$$

VAZ025>031-201600-
SHENANDOAH VALLEY

CITY           SKY/WX    TMP DP  RH WIND       PRES   REMARKS
WINCHESTER*    CLOUDY    39  37  93 CALM      29.90F FOG
FRONT ROYAL*   CLOUDY    39  37  93 CALM      29.89F
LURAY*         LGT RAIN  43  43 100 SE5       29.89F
NEW MARKET*    CLOUDY    40  38  91 SE5       29.87F
STAUNTON*      CLOUDY    44  43  95 CALM      29.91F
WAYNESBORO*    CLOUDY    44  43  96 CALM      29.89F

$$

WVZ021-048>050-054>055-201600-
EASTERN WEST VIRGINIA PANHANDLE

CITY           SKY/WX    TMP DP  RH WIND       PRES   REMARKS
MARTINSBURG    CLOUDY    40  37  89 N3        29.91S FOG
PETERSBURG*    CLOUDY    40  38  95 CALM      29.88R

$$

VAZ036>039-050-201600-
CENTRAL FOOTHILLS

CITY           SKY/WX    TMP DP  RH WIND       PRES   REMARKS
CHARLOTTESVILL LGT RAIN  44  41  89 CALM      29.93S FOG
CULPEPER*      CLOUDY    42  39  91 CALM      29.96F
ORANGE*        LGT RAIN  43  43 100 CALM      29.97R
GORDONSVILLE*  CLOUDY    42  41  96 CALM      29.95R FOG
WARRENTON*     CLOUDY    43  38  83 SE3       29.95S

$$

VAZ055>057-201600-
NORTH AND CENTRAL PIEDMONT

CITY           SKY/WX    TMP DP  RH WIND       PRES   REMARKS
FREDERICKSBRG* CLOUDY    43  43  99 CALM      29.96S
STAFFORD*      CLOUDY    42  40  92 CALM      30.00F

$$

NCZ024-NYZ072-PAZ021-071-VAZ022-071-201600-
OTHER REGIONAL OBSERVATIONS

CITY           SKY/WX    TMP DP  RH WIND       PRES   REMARKS
NEW YORK CITY  CLOUDY    42  32  67 NE6       30.04R
PHILADELPHIA   CLOUDY    38  34  85 E6        30.01S
PITTSBURGH     LGT RAIN  41  41 100 SE3       29.72S FOG
ROANOKE        CLOUDY    46  44  93 SE5       29.94S
RICHMOND       CLOUDY    45  41  86 SE3       29.96S
RALEIGH        LGT RAIN  50  47  89 VRB3      29.92S FOG

$$

ANZ530>537-201600-
MARINE OBSERVATIONS

STATION/POSITION TIME  TEMP    WIND        PRES
                       AIR SEA DIR/SP/G
                 (UTC) (F)     (DEG/KT/KT) (MB)
THOMAS PT LIGHT  1500   40 40  120/  7/  8   N/A
BALT KEY BRIDGE  1442   38     100/  5/  5 1015.8R
COVE POINT       1442   40     190/  8/  8 1016.2R
LEWISETTA        1442   43 43  120/  5/  6 1015.0F
SOLOMONS ISLAND  1442   41 41  100/  6/  7   N/A
PINEY POINT      1448          140/  6/  6   N/A

$$





USA.gov is the U.S. government's official web portal to all federal, state and local government web resources and services.